• In France
  • List of Countries
  • For 7 days
  • Water Temperature
  • Satellite Maps
  • Weather Map
  • Weather Widgets
  • user-avatar
    Login

    Hourly Weather Gorenki

    Today, 22 September, Saturday

    Time Temperature Precipitation Wind Pressure Humidity
    00:00 +16°C° 0 mm 2 mps 744 mmHg 82%
    01:00 +15°C° 0 mm 2 mps 744 mmHg 84%
    02:00 +15°C° 0 mm 2 mps 744 mmHg 86%
    03:00 +14°C° 0 mm 2 mps 744 mmHg 88%
    04:00 +14°C° 0 mm 2 mps 744 mmHg 89%
    05:00 +14°C° 0 mm 2 mps 743 mmHg 90%
    06:00 +14°C° 0 mm 2 mps 743 mmHg 91%
    07:00 +16°C° 0 mm 3 mps 743 mmHg 85%
    08:00 +17°C° 0 mm 3 mps 743 mmHg 80%
    09:00 +19°C° 0 mm 3 mps 743 mmHg 75%
    10:00 +21°C° 0 mm 4 mps 743 mmHg 69%
    11:00 +23°C° 0 mm 4 mps 742 mmHg 62%
    12:00 +25°C° 0 mm 5 mps 742 mmHg 56%
    13:00 +26°C° 0 mm 5 mps 742 mmHg 54%
    14:00 +26°C° 0 mm 5 mps 741 mmHg 52%
    15:00 +26°C° 0 mm 5 mps 741 mmHg 49%
    16:00 +25°C° 0 mm 5 mps 740 mmHg 54%
    17:00 +23°C° 0 mm 4 mps 740 mmHg 58%
    18:00 +22°C° 0 mm 4 mps 739 mmHg 62%
    19:00 +21°C° 0.1 mm 4 mps 739 mmHg 65%
    20:00 +20°C° 0.1 mm 4 mps 738 mmHg 68%
    21:00 +19°C° 0.1 mm 4 mps 738 mmHg 71%
    22:00 +19°C° 0.1 mm 4 mps 738 mmHg 73%
    23:00 +19°C° 0.1 mm 4 mps 737 mmHg 74%

    Tomorrow, 23 September, Sunday

    Time Temperature Precipitation Wind Pressure Humidity
    00:00 +18°C° 0.1 mm 4 mps 737 mmHg 76%
    01:00 +18°C° 0.2 mm 4 mps 737 mmHg 78%
    02:00 +17°C° 0.2 mm 4 mps 737 mmHg 81%
    03:00 +16°C° 0.2 mm 3 mps 736 mmHg 84%
    04:00 +16°C° 0.3 mm 3 mps 736 mmHg 85%
    05:00 +14°C° 0.3 mm 3 mps 736 mmHg 87%
    06:00 +13°C° 0.3 mm 3 mps 735 mmHg 88%
    07:00 +13°C° 0.8 mm 3 mps 735 mmHg 88%
    08:00 +12°C° 0.8 mm 3 mps 735 mmHg 88%
    09:00 +12°C° 0.8 mm 3 mps 735 mmHg 89%
    10:00 +11°C° 2.2 mm 4 mps 735 mmHg 89%
    11:00 +10°C° 2.2 mm 4 mps 735 mmHg 90%
    12:00 +8°C° 2.2 mm 5 mps 735 mmHg 90%
    13:00 +8°C° 0.6 mm 4 mps 736 mmHg 87%
    14:00 +10°C° 0.6 mm 4 mps 736 mmHg 84%
    15:00 +11°C° 0.6 mm 4 mps 737 mmHg 81%
    16:00 +11°C° 0 mm 3 mps 737 mmHg 81%
    17:00 +11°C° 0 mm 3 mps 737 mmHg 82%
    18:00 +12°C° 0 mm 2 mps 737 mmHg 82%
    19:00 +10°C° 0 mm 2 mps 737 mmHg 84%
    20:00 +10°C° 0 mm 2 mps 737 mmHg 86%
    21:00 +9°C° 0 mm 2 mps 737 mmHg 89%
    22:00 +9°C° 0 mm 2 mps 737 mmHg 89%
    23:00 +8°C° 0 mm 2 mps 737 mmHg 89%

    Day after tomorrow, 24 September, Monday

    Time Temperature Precipitation Wind Pressure Humidity
    00:00 +8°C° 0 mm 2 mps 737 mmHg 90%
    01:00 +8°C° 0 mm 2 mps 737 mmHg 91%
    02:00 +7°C° 0 mm 2 mps 737 mmHg 92%
    03:00 +7°C° 0 mm 2 mps 737 mmHg 93%
    04:00 +7°C° 0 mm 2 mps 737 mmHg 93%
    05:00 +6°C° 0 mm 2 mps 737 mmHg 94%
    06:00 +6°C° 0 mm 2 mps 737 mmHg 94%
    07:00 +7°C° 0 mm 2 mps 737 mmHg 90%
    08:00 +8°C° 0 mm 3 mps 737 mmHg 85%
    09:00 +9°C° 0 mm 3 mps 737 mmHg 81%
    10:00 +11°C° 0 mm 3 mps 737 mmHg 74%
    11:00 +12°C° 0 mm 3 mps 737 mmHg 66%
    12:00 +13°C° 0 mm 3 mps 736 mmHg 59%
    13:00 +13°C° 0.2 mm 3 mps 736 mmHg 61%
    14:00 +13°C° 0.2 mm 4 mps 736 mmHg 64%
    15:00 +13°C° 0.2 mm 4 mps 735 mmHg 66%
    16:00 +12°C° 1.1 mm 4 mps 734 mmHg 73%
    17:00 +10°C° 1.1 mm 4 mps 734 mmHg 80%
    18:00 +8°C° 1.1 mm 5 mps 733 mmHg 86%
    19:00 +8°C° 1.6 mm 5 mps 731 mmHg 87%
    20:00 +8°C° 1.6 mm 6 mps 730 mmHg 88%
    21:00 +6°C° 1.6 mm 7 mps 728 mmHg 89%
    22:00 +8°C° 3.1 mm 7 mps 726 mmHg 90%
    23:00 +8°C° 3.1 mm 7 mps 725 mmHg 90%

    25 September, Tuesday

    Time Temperature Precipitation Wind Pressure Humidity
    00:00 +8°C° 3.1 mm 6 mps 723 mmHg 91%
    01:00 +8°C° 0.9 mm 6 mps 722 mmHg 90%
    02:00 +8°C° 0.9 mm 5 mps 721 mmHg 90%
    03:00 +8°C° 0.9 mm 4 mps 721 mmHg 90%
    04:00 +9°C° 0.8 mm 3 mps 721 mmHg 91%
    05:00 +8°C° 0.8 mm 3 mps 720 mmHg 92%
    06:00 +8°C° 0.8 mm 2 mps 720 mmHg 94%
    07:00 +8°C° 0.7 mm 3 mps 721 mmHg 93%
    08:00 +7°C° 0.7 mm 4 mps 721 mmHg 92%
    09:00 +7°C° 0.7 mm 5 mps 722 mmHg 91%
    10:00 +7°C° 0.7 mm 6 mps 723 mmHg 90%
    11:00 +6°C° 0.7 mm 7 mps 724 mmHg 88%
    12:00 +6°C° 0.7 mm 8 mps 725 mmHg 87%
    13:00 +6°C° 0.7 mm 8 mps 726 mmHg 86%
    14:00 +6°C° 0.7 mm 8 mps 727 mmHg 86%
    15:00 +5°C° 0.7 mm 8 mps 728 mmHg 85%
    16:00 +5°C° 0.6 mm 8 mps 729 mmHg 84%
    17:00 +5°C° 0.6 mm 8 mps 731 mmHg 83%
    18:00 +5°C° 0.6 mm 8 mps 732 mmHg 82%
    19:00 +5°C° 0.2 mm 8 mps 733 mmHg 81%
    20:00 +4°C° 0.2 mm 8 mps 734 mmHg 81%
    21:00 +4°C° 0.2 mm 7 mps 735 mmHg 80%
    22:00 +4°C° 0 mm 7 mps 735 mmHg 79%
    23:00 +3°C° 0 mm 7 mps 736 mmHg 79%

    26 September, Wednesday

    Time Temperature Precipitation Wind Pressure Humidity
    00:00 +3°C° 0 mm 7 mps 737 mmHg 78%
    01:00 +2°C° 0 mm 6 mps 738 mmHg 78%
    02:00 +2°C° 0 mm 6 mps 738 mmHg 78%
    03:00 +1°C° 0 mm 6 mps 739 mmHg 78%
    04:00 +1°C° 0 mm 5 mps 739 mmHg 78%
    05:00 0°C° 0 mm 5 mps 740 mmHg 77%
    06:00 0°C° 0 mm 4 mps 740 mmHg 77%
    07:00 +1°C° 0 mm 5 mps 740 mmHg 76%
    08:00 +2°C° 0 mm 5 mps 740 mmHg 75%
    09:00 +3°C° 0 mm 5 mps 740 mmHg 74%
    10:00 +3°C° 0.3 mm 5 mps 740 mmHg 75%
    11:00 +5°C° 0.3 mm 5 mps 739 mmHg 77%
    12:00 +5°C° 0.3 mm 5 mps 739 mmHg 78%
    13:00 +5°C° 0.7 mm 5 mps 739 mmHg 80%
    14:00 +5°C° 0.7 mm 5 mps 739 mmHg 82%
    15:00 +5°C° 0.7 mm 5 mps 738 mmHg 83%
    16:00 +5°C° 0.1 mm 4 mps 738 mmHg 85%
    17:00 +5°C° 0.1 mm 4 mps 738 mmHg 86%
    18:00 +5°C° 0.1 mm 3 mps 737 mmHg 88%
    19:00 +4°C° 0 mm 3 mps 737 mmHg 90%
    20:00 +4°C° 0 mm 3 mps 737 mmHg 92%
    21:00 +4°C° 0 mm 2 mps 737 mmHg 94%
    22:00 +4°C° 0.3 mm 3 mps 736 mmHg 93%
    23:00 +4°C° 0.3 mm 3 mps 736 mmHg 93%

    27 September, Thursday

    Time Temperature Precipitation Wind Pressure Humidity
    00:00 +5°C° 0.3 mm 3 mps 735 mmHg 93%
    01:00 +5°C° 0.6 mm 4 mps 734 mmHg 92%
    02:00 +6°C° 0.6 mm 5 mps 733 mmHg 91%
    03:00 +6°C° 0.6 mm 5 mps 732 mmHg 91%
    04:00 +5°C° 1.6 mm 6 mps 731 mmHg 90%
    05:00 +5°C° 1.6 mm 6 mps 730 mmHg 90%
    06:00 +5°C° 1.6 mm 7 mps 729 mmHg 90%
    07:00 +6°C° 0.5 mm 7 mps 729 mmHg 89%
    08:00 +8°C° 0.5 mm 7 mps 729 mmHg 88%
    09:00 +8°C° 0.5 mm 7 mps 729 mmHg 87%
    10:00 +9°C° 0.4 mm 7 mps 729 mmHg 83%
    11:00 +10°C° 0.4 mm 7 mps 729 mmHg 80%
    12:00 +10°C° 0.4 mm 7 mps 729 mmHg 77%
    13:00 +10°C° 0.1 mm 6 mps 730 mmHg 74%
    14:00 +10°C° 0.1 mm 6 mps 730 mmHg 71%
    15:00 +10°C° 0.1 mm 5 mps 730 mmHg 67%
    16:00 +11°C° 0.2 mm 4 mps 730 mmHg 73%
    17:00 +10°C° 0.2 mm 4 mps 730 mmHg 79%
    18:00 +9°C° 0.2 mm 3 mps 730 mmHg 84%
    19:00 +8°C° 0.7 mm 4 mps 729 mmHg 86%
    20:00 +8°C° 0.7 mm 4 mps 729 mmHg 88%
    21:00 +8°C° 0.7 mm 5 mps 729 mmHg 90%
    22:00 +8°C° 0.2 mm 4 mps 729 mmHg 91%
    23:00 +8°C° 0.2 mm 4 mps 728 mmHg 92%
    Show more